Other Public Products
Issued by NWS Grand Forks, ND

Home | Current Version | Previous Version | Graphics & Text | Print | Product List | Glossary On
Versions: 1 2 3 4 5 6 7 8 9 10 11 12 13 14 15 16 17 18 19 20 21 22 23 24 25 26 27 28 29 30 31 32 33 34 35 36 37 38 39 40 41 42 43 44 45 46 47 48 49 50
000
FPUS83 KFGF 242110
OPUFGF
PRAIRIE TO PINES WEATHER ROUNDUP
NATIONAL WEATHER SERVICE EASTERN NORTH DAKOTA/GRAND FORKS ND
400 PM CDT TUE MAY 24 2016

 **SATELLITE DATA USED TO AUGMENT SKY COVER AT AUTOMATED STATIONS**
 *****  WEATHER ACROSS EASTERN NORTH DAKOTA  *****

CITY           SKY/WX    TMP DP  RH WIND       PRES   REMARKS
GRAND FORKS    MOSUNNY   79  50  36 VRB3      29.87S
GRAND FORKS AF SUNNY     76  48  37 NW3       29.88S
GRAND CITY NWS   N/A     79 N/A N/A SW1         N/A
BUXTON           N/A     81  51  35 CALM        N/A
DEVILS LAKE    SUNNY     76  45  33 SE8       29.89S
FARGO          SUNNY     84  45  25 MISG      29.85R
WAHPETON ARPT  CLEAR     84  41  21 W8        29.83F
$$

 *****  WEATHER ACROSS CENTRAL AND WESTERN NORTH DAKOTA  *****

CITY           SKY/WX    TMP DP  RH WIND       PRES   REMARKS
JAMESTOWN      SUNNY     77  50  38 SE6       29.88S
BISMARCK       SUNNY     76  41  28 CALM      29.87F
MINOT          PTSUNNY   75  39  27 SW8       29.88S
MINOT AFB      MOSUNNY   72  40  31 SW9       29.87S
GARRISON         N/A     74  44  34 W12G17    29.89S
WILLISTON      CLOUDY    70  37  29 SW15G21   29.88S
DICKINSON      PTSUNNY   72  36  26 S6G16     29.87F
HETTINGER      SUNNY     72  40  31 MISG      29.89F
$$

 *****  OTHER OBSERVATIONS NORTHEAST NORTH DAKOTA  *****

CITY           SKY/WX    TMP DP  RH WIND       PRES   REMARKS
WALHALLA       FAIR      73  48  40 SE12      29.87S
LANGDON        FAIR      73  45  35 SW15      29.89S
CAVALIER       FAIR      73  48  40 CALM      29.87S
GRAFTON        FAIR      75  52  43 CALM      29.89S
CANDO          FAIR      75  41  29 W13G20    29.90R
FORT TOTTEN      N/A     77  45  32 N5        29.95S
ROLLA            N/A     72  37  28 W16       29.90R
RUGBY          FAIR      75  39  27 SW15G23   29.88S
 ***** THE ABOVE OBSERVATIONS ARE NON NWS ARE NOT QUALITY
        CONTROLLED AND MAY MIS-REPORT RAIN FOR SNOW...
$$

 *****  OTHER OBSERVATIONS SOUTHEAST NORTH DAKOTA *****

CITY           SKY/WX    TMP DP  RH WIND       PRES   REMARKS
COOPERSTOWN    NOT AVBL
VALLEY CITY    FAIR      75  46  35 W5        29.91S
OAKES            N/A    N/A N/A N/A MISG        N/A
GWINNER        FAIR      82  46  28 W6        29.85S
SHEYENNE NWR     N/A     82  46  27 NE5       29.95
BUFFALO          N/A     78  45  30 W6          N/A
WYNDMERE         N/A     84  46  26 W3          N/A
 ***** THE ABOVE OBSERVATIONS ARE NON NWS ARE NOT QUALITY
       CONTROLLED AND MAY MIS-REPORT RAIN FOR SNOW...
$$

  *****  WEATHER ACROSS NORTHERN MINNESOTA  *****

CITY           SKY/WX    TMP DP  RH WIND       PRES   REMARKS
FLAG ISLAND    MOSUNNY   66  50  55 N9        29.88S
WARROAD        MOSUNNY   70  54  56 E7        29.88S
ROSEAU         MOSUNNY   75  54  46 NW3       29.88S
HALLOCK        SUNNY     75  48  38 NW5       29.87S
THF RVR FALLS  SUNNY     73  52  46 W8        29.90S
HALSTAD        NOT AVBL
FOSSTON        SUNNY     77  46  33 W9        29.90R
BAUDETTE       SUNNY     76  48  37 NW12      29.87R
WASKISH        SUNNY     77  52  41 SW13      29.88S
CROOKSTON      SUNNY     75  54  46 W3        29.89S
$$
  *****  WEATHER ACROSS CENTRAL AND WEST MINNESOTA  *****

CITY           SKY/WX    TMP DP  RH WIND       PRES   REMARKS
BEMIDJI        SUNNY     80  44  28 W14       29.89R
PARK RAPIDS    MOSUNNY   80  52  37 NW8       29.88S
WADENA         MOSUNNY   81  46  30 NW3       29.87R
DETROIT LAKES  CLOUDY    77  50  38 NW3       29.90S
MOORHEAD       LGT RAIN  81  43  26 CALM      29.86R
FERGUS FALLS   MOSUNNY   82  52  34 S5        29.80F
ELBOW LAKE     FAIR      81  49  33 W7        29.85S
MORRIS MN      SUNNY     84  50  30 W7        29.83F
STAPLES        SUNNY     82  45  26 NW5       29.87S
WHEATON        SUNNY     88  52  29 W10       29.84F
$$
  *****  WEATHER ELSEWHERE ACROSS MINNESOTA  *****

CITY           SKY/WX    TMP DP  RH WIND       PRES   REMARKS
DULUTH         MOSUNNY   69  56  62 E15       29.91R
INTRNTL FALLS  PTSUNNY   80  47  31 S8        29.85S
ELY            PTSUNNY   72  52  49 CALM      29.90R
CLOQUET        SUNNY     79  52  38 W3        29.89S
BRAINERD       SUNNY     79  51  37 VRB3      29.89S
HIBBING        MOSUNNY   78  50  37 W8        29.88S
ALEXANDRIA     MOSUNNY   81  48  31 SW5       29.87F
SAINT CLOUD    CLOUDY    80  58  46 SE6       29.88S
MINNEAPOLIS    MOSUNNY   83  52  34 W9        29.88S
$$

  *****  WEATHER ACROSS SOUTH DAKOTA  *****

CITY           SKY/WX    TMP DP  RH WIND       PRES   REMARKS
SIOUX FALLS    MOSUNNY   83  51  33 S3        29.87S
BROOKINGS      SUNNY     83  45  26 W10       29.86F
WATERTOWN      SUNNY     82  52  35 VRB6      29.87F
HURON          SUNNY     83  46  27 MISG      29.84S
SISSETON         N/A     85  46  25 W9        29.82F
ABERDEEN       SUNNY     84  46  26 W9        29.84S
MITCHELL       SUNNY     84  46  26 S6        29.85S
PIERRE         SUNNY     80  33  18 CALM      29.84F
MOBRIDGE       SUNNY     79  48  33 CALM      29.85F
RAPID CITY     LGT RAIN  70  47  43 E13       29.86F
$$

  *****  SOME WEATHER IN NEARBY STATES *****

CITY           SKY/WX    TMP DP  RH WIND       PRES   REMARKS
GLASGOW MT     CLOUDY    60  41  49 W15       29.87F
GREAT FALLS MT CLOUDY    58  37  45 VRB6      29.89S
CHEYENNE WY    CLOUDY    66  42  41 S16G31    29.91F
SCOTTSBLUFF NE MOSUNNY   78  48  34 SE18G28   29.83F
OMAHA NE       MOSUNNY   81  59  47 SE9       29.89S
DES MOINES IA  PTSUNNY   82  61  48 CALM      29.90F
DAVENPORT IA   MOSUNNY   87  57  35 S16G22    29.92S
CHICAGO IL     PTSUNNY   85  48  27 SW14G28   29.93F
EAU CLAIRE WI  MOSUNNY   82  56  40 SW8       29.88S
LA CROSSE WI   MOSUNNY   81  58  45 CALM      29.90R
$$

  *****  SOME NATIONAL WEATHER *****

CITY           SKY/WX    TMP DP  RH WIND       PRES   REMARKS
LA GUARDIA NY  CLOUDY    71  55  56 N10       29.91R
RALEIGH NC     MOSUNNY   83  53  35 VRB5      30.08F
ATLANTA GA     MOSUNNY   84  49  29 CALM      30.11F
NEW ORLEANS LA MOSUNNY   88  72  58 S13       30.07S HX  94
OKLAHOMA CITY  PTSUNNY   85  72  65 S15G22    29.87S HX  91
ALBUQUERQUE NM MOSUNNY   79  19  10 S13G21    29.95F
SALT LAKE CITY CLOUDY    64  37  36 NW14      29.82R THUNDER
LOS ANGELES CA MOSUNNY   65  51  60 W14       30.02S
BOISE ID       MOSUNNY   71  33  24 W12G23    29.83S
SEATTLE WA     CLOUDY    60  50  69 SW5       30.02R
$$

*** WEATHER ACROSS MANITOBA...SASKATCHEWAN AND ONTARIO ***
                ***ONTARIO***

CITY           SKY/WX    TMP DP  RH WIND       PRES   REMARKS
GERALDTON      CLOUDY    57  41  54 NE12      30.02S
THUNDER BAY    PTSUNNY   63  55  77 E7        29.97R
SIOUX LOOKOUT  TSTM      63  54  72 E6        29.92R
TORONTO        MOSUNNY   84  43  23 W7        29.93S
BIG TROUT LK   PTSUNNY   48  36  61 E7        30.10F
PICKLE LAKE    PTSUNNY   55  41  58 E8        30.01R
DRYDEN         TSTM      57  50  77 W9        29.95R
KENORA         NOT AVBL
$$
                *** MANITOBA***

CITY           SKY/WX    TMP DP  RH WIND       PRES   REMARKS
BRANDON        PTSUNNY   72  41  33 SW16      29.85S
DAUPHIN        SUNNY     63  50  63 NE13      29.88F
ISLAND LAKE    MOSUNNY   52  43  71 SE9G18    30.03F
PILOT MOUND      N/A     75  39  27 SW18G24     N/A
THE PAS        CLOUDY    54  41  62 SE9       29.98R
THOMPSON       PTSUNNY   52  36  54 E7        30.04F
WINNIPEG       PTSUNNY   73  43  33 E8        29.87F
LYNN LAKE      MOSUNNY   55  39  54 S10       29.97F
CHURCHILL      PTSUNNY   36  23  60 NE9       30.16F
GILLAM         PTSUNNY   45  30  57 NE9       30.10F
$$
                ***SASKATCHEWAN***

CITY           SKY/WX    TMP DP  RH WIND       PRES   REMARKS
ESTEVAN        PTSUNNY   72  39  30 SW16G28   29.85F
KINDERSLEY     CLOUDY    50  46  87 NE15      29.86S
LLOYDMINSTER   PTSUNNY   59  46  63 SE6       29.88F
PRINCE ALBERT  DRIZZLE   52  46  82 NE10G17   29.92S
REGINA         LGT RAIN  54  46  76 S21       29.84S
YORKTON        PTSUNNY   66  43  42 S8        29.84S   C1F1C2F2C3F3C4F4C5F5C6F6C7F7C8F8C9F9CaFaCbFbCcFcCdFdCe!



USA.gov is the U.S. government's official web portal to all federal, state and local government web resources and services.